RH
56 73 88 92 95 93 88 76 64 59 51 54 61 74 77 70 65 64 63 68 72 71
66 63 80 94 94 93 94 88 81 71 65 55 52 62 73 73 70 67 65 67 74 76
76 68 68 87 92 96 96 93 92 85 78 71 59 58 70 65 67 69 68 71 73 75
83 79 71 73 89 94 96 91 94 97 93 83 74 67 71 69 61 61 66 70 69 69
82 91 86 71 81 82 89 95 99 91 96 96 86 80 76 81 73 61 58 60 65 65
78 84 98 88 78 79 89 82 95 94 96 99 95 88 81 85 84 78 69 61 63 66
81 87 87 95 89 80 80 92 92 98 96 94 99 93 91 90 89 90 87 78 73 71
76 76 88 88 93 92 85 84 89 98 97 94 96 98 95 95 98 96 94 92 88 83
83 75 81 82 85 92 95 93 88 95 98 96 99 97 92 95 95 97 97 95 94 95
82 72 72 85 89 91 93 96 96 93 98 90 99 95 97 96 98 93 95 93 92 95
84 78 68 73 83 92 95 94 94 98 93 99 95 94 97 99 97 98 96 95 96 96
78 78 75 71 72 81 87 88 87 93 98 97 96 95 98 99 99 98 99 96 91 94
69 70 74 75 71 67 81 85 91 93 96 94 92 95 94 96 93 97 95 95 98 97
65 66 69 71 76 73 68 76 90 87 94 94 90 95 98 98 98 97 94 94 98 95